Location: Kearney
(40.6990°N, 99.0810°W)
Time: 02:24:59
(UTC-05:00)

Daily predictions for brighter satellites

Satellite Brightness Start Highest point End
(mag) Time Altitude Azimuth Time Altitude Azimuth Time Altitude Azimuth
Nadezhda 1 Rocket 4.4 00:02:06 10° NNW 00:08:07 56° W 00:08:07 56° W
Lacrosse 5 3.9 00:13:03 10° W 00:17:16 26° NNW 00:21:30 10° NNE
Cosmos 2181 Rocket 4.4 00:12:05 10° N 00:17:24 61° NNE 00:17:24 61° NNE
H-2A R/B 4.2 00:22:12 16° W 00:22:12 16° W 00:25:05 10° NW
Cosmos 1709 Rocket 4.4 00:24:56 59° NNW 00:24:56 59° NNW 00:30:00 10° N
ATLAS CENTAUR R/B 4.5 00:21:38 10° NW 00:32:44 33° N 00:35:02 25° NE
Cosmos 2278 Rocket 3.1 00:27:35 10° NNW 00:31:25 45° NNW 00:31:25 45° NNW
NOSS 3-2 (A) 4.2 00:30:57 10° NW 00:37:47 61° W 00:37:47 61° W
COSMOS 2455 4.1 00:37:37 10° NNW 00:42:18 34° NE 00:42:18 34° NE
Cosmos 1844 Rocket 4.4 00:38:58 10° NW 00:42:07 25° WNW 00:42:07 25° WNW
Cosmos 2219 Rocket 3.6 00:56:04 33° NW 00:56:04 33° NW 01:00:41 10° N
SL-16 R/B 3.9 01:03:29 26° NE 01:03:29 26° NE 01:05:55 10° NNE
CZ-2C R/B 4.0 00:57:50 10° N 01:00:52 35° N 01:00:52 35° N
Cosmos 2333 Rocket 3.8 01:14:45 29° NW 01:14:45 29° NW 01:19:06 10° N
Mayak 1.7 01:28:21 10° N 01:28:57 14° N 01:28:57 14° N
Cosmos 2237 Rocket 3.9 01:38:56 27° NW 01:38:56 27° NW 01:42:51 10° N
Cosmos 2369 Rocket 4.0 01:37:32 10° N 01:41:42 26° NE 01:41:42 26° NE
CENTAUR R/B 3.4 01:45:34 10° NW 01:51:45 56° WNW 01:51:45 56° WNW
USA 215 3.8 02:00:30 52° NNW 02:00:30 52° NNW 02:05:20 10° NW
SL-16 R/B 4.1 02:45:21 20° NW 02:45:21 20° NW 02:49:04 10° N
BREEZE-M DEB (TANK) 4.2 03:09:37 61° NNE 03:09:37 61° NNE 03:19:53 10° ENE
Cosmos 1943 Rocket 3.0 03:08:57 10° NNW 03:12:38 43° NNW 03:12:38 43° NNW
SL-16 R/B 3.3 03:15:36 39° ESE 03:17:07 47° ENE 03:23:02 10° N
Resurs 1-4 Rocket 3.3 03:15:03 10° NNE 03:19:26 34° E 03:19:26 34° E
Cosmos 1821 Rocket 4.2 03:20:12 62° E 03:20:12 62° E 03:26:15 10° NNE
Cosmos 2369 Rocket 3.8 03:21:04 10° NW 03:23:26 24° NW 03:23:26 24° NW
CZ-2D R/B 3.0 03:25:22 10° NNE 03:30:15 43° E 03:30:15 43° E
Cosmos 1934 Rocket 4.1 03:34:38 60° ESE 03:34:55 61° E 03:40:53 10° NNE
Cosmos 1943 4.2 03:37:57 37° NW 03:37:57 37° NW 03:42:33 10° N
Cosmos 841 Rocket 4.1 03:41:57 49° NNW 03:41:57 49° NNW 03:45:59 10° NNE
USA 32 4.3 03:37:00 10° N 03:41:31 64° NNE 03:41:31 64° NNE
ARIANE 5 R/B 2.9 03:47:13 10° NNE 03:52:24 59° E 03:52:31 58° ESE
UNK 4.3 03:57:31 50° N 03:57:31 50° N 04:00:56 10° NNW
Cosmos 1400 Rocket 4.1 03:56:11 10° N 03:59:08 39° NE 03:59:08 39° NE
UNKNOWN OBJECT B 4.4 03:56:30 10° NNE 04:00:00 32° E 04:00:00 32° E
Cosmos 1726 3.9 04:03:54 27° E 04:03:54 27° E 04:06:47 10° NNE
ADEOS Rocket 3.5 04:03:55 10° N 04:08:42 38° WNW 04:08:42 38° WNW
ADEOS II 4.4 04:06:47 10° NE 04:10:18 18° E 04:13:48 10° SE
IRS-1D 3.4 04:11:44 10° N 04:16:51 73° WNW 04:17:04 72° W
Cosmos 2221 2.9 04:17:53 57° NNW 04:17:53 57° NNW 04:21:28 10° N
Cosmos 1805 Rocket 3.6 04:14:51 10° N 04:19:18 73° E 04:19:25 73° E
ADEOS 3.4 04:20:05 10° NNE 04:25:20 82° WNW 04:26:04 66° SW
Spot 4 Rocket 4.1 04:20:17 10° N 04:25:22 59° WNW 04:25:38 59° W
COSMOS 2406 3.1 04:29:09 59° SW 04:30:16 81° WNW 04:36:01 10° NNE
Cosmos 372 Rocket 3.9 04:25:50 10° NNW 04:30:51 61° WSW 04:30:51 61° WSW
Cosmos 2098 Rocket 4.2 04:32:57 42° W 04:33:15 42° W 04:38:12 10° N
Cosmos 2285 Rocket 3.9 04:31:45 46° SSW 04:33:51 88° WNW 04:40:18 10° NNE
Okean O Rocket 4.2 04:33:33 10° NE 04:36:20 16° E 04:39:05 10° SE
Cosmos 1908 4.4 04:38:55 31° NW 04:38:55 31° NW 04:41:27 10° N
Cosmos 540 Rocket 4.1 04:38:05 37° WNW 04:38:25 38° WNW 04:43:11 10° N
MOS 1 Rocket 3.7 04:42:33 10° N 04:46:37 41° WNW 04:46:38 41° WNW
Cosmos 1300 2.7 04:47:35 61° SSE 04:48:09 77° E 04:51:59 10° N
Cosmos 2173 Rocket 4.3 04:47:05 16° S 04:52:10 67° E 04:58:29 10° NNE
Sich 1 2.9 04:49:09 10° NNW 04:53:32 71° W 04:54:41 47° SSW
Cosmos 1125 Rocket 4.5 04:50:51 10° NW 04:54:26 29° W 04:54:26 29° W
Meteor 2-17 Rocket 4.4 04:52:13 24° S 04:56:05 88° E 05:02:14 10° N
CZ-2D R/B 3.4 04:53:30 10° N 04:57:26 59° WNW 04:57:57 53° WSW
Resurs 1-4 Rocket 3.1 04:55:04 10° N 04:59:32 29° WNW 05:00:31 27° W
SL-16 R/B 3.4 05:00:43 28° W 05:00:54 28° W 05:06:08 10° NW
Cosmos 1315 Rocket 2.8 04:59:32 10° NNW 05:03:31 56° W 05:04:13 48° SW
Cosmos 1455 4.4 05:01:54 10° SE 05:04:55 23° E 05:07:56 10° NE
Cosmos 1470 Rocket 3.8 05:05:25 10° N 05:09:44 69° E 05:14:02 10° SSE
CZ-2D R/B 3.4 05:06:00 10° NNW 05:10:15 25° WNW 05:11:34 22° W
Cosmos 2228 Rocket 3.0 05:08:44 24° S 05:11:26 88° E 05:15:54 10° N
Cosmos 1538 Rocket 4.0 05:11:03 28° SSW 05:13:59 75° WNW 05:19:22 10° NNE
Cosmos 1459 Rocket 3.9 05:10:07 17° S 05:15:01 81° W 05:21:07 10° N
PSLV R/B 3.0 05:15:14 46° W 05:16:04 86° N 05:19:20 10° E
USA 161 3.0 05:17:34 18° NNW 05:17:34 18° NNW 05:18:14 10° NNW
Cosmos 1515 Rocket 3.5 05:15:04 19° S 05:18:10 86° E 05:22:37 10° N
Centaur D AC-29 4.0 05:15:46 18° SSW 05:19:41 23° S 05:40:54 10° SE
Tiangong 2 2.7 05:19:05 22° S 05:19:48 24° SSE 05:22:29 10° E
Cosmos 1633 Rocket 3.4 05:17:52 10° NNW 05:21:59 41° W 05:23:50 26° SW
Cosmos 2082 Rocket 3.2 05:17:02 10° S 05:22:19 45° ESE 05:27:40 10° NE
PSLV R/B 4.1 05:19:00 10° NNE 05:23:10 72° ESE 05:26:50 13° S
USA 229 DEB 4.2 05:18:48 10° NW 05:25:20 39° WSW 05:31:58 10° S
USA 229 4.2 05:18:53 10° NW 05:25:27 39° WSW 05:32:06 10° S
Meteor 2-3 Rocket 4.0 05:22:56 10° N 05:28:36 72° E 05:34:16 10° SSE
NOSS 3-1 (A) 4.1 05:23:05 10° NW 05:30:48 89° ENE 05:39:18 10° SSE
Lacrosse 5 2.9 05:25:58 10° NW 05:30:53 48° NE 05:35:48 10° ESE
ARIANE 5 R/B 4.2 05:27:32 10° NNW 05:31:02 18° WNW 05:32:51 16° W
CZ-4B R/B 3.2 05:28:17 10° NNE 05:32:45 81° ESE 05:37:17 10° S
UNKNOWN OBJECT B 4.4 05:31:26 10° NNW 05:34:26 20° WNW 05:35:28 18° W
Cosmos 2061 Rocket 4.1 05:28:46 11° SSW 05:34:51 65° W 05:41:15 10° N
Cosmos 1726 3.8 05:38:31 16° W 05:38:55 17° WNW 05:41:22 10° NNW
CZ-4B R/B 3.6 05:34:08 10° NNE 05:39:36 64° ESE 05:44:54 10° S
Cosmos 1680 Rocket 3.9 05:36:40 10° S 05:41:53 67° ESE 05:47:11 10° NNE
SL-27 R/B 4.1 05:41:53 16° W 05:42:42 18° WNW 05:45:06 10° NNW
Cosmos 1328 Rocket 4.3 05:42:22 19° SW 05:44:46 33° WNW 05:48:42 10° NNW
Cosmos 1892 2.6 05:42:04 10° NNW 05:45:53 74° W 05:49:43 10° S
Landsat 4 3.9 05:43:34 10° SSE 05:47:16 72° ENE 05:51:02 10° N
PAYLOAD B 4.3 05:41:41 10° NNE 05:47:20 85° ESE 05:52:55 10° SSW
Cosmos 2112 Rocket 4.4 05:43:12 10° S 05:48:26 66° ESE 05:53:44 10° NNE
Shenzhou-11 Module 2.4 05:46:46 21° SW 05:48:33 53° SSE 05:51:35 10° E
Cosmos 2369 3.6 05:44:13 10° NNW 05:49:53 78° WSW 05:55:31 10° SSE
Hubble Space Telescope 2.8 05:48:18 11° SSW 05:50:07 14° S 05:52:25 10° SE
ADEOS II 2.3 05:45:13 10° N 05:50:21 55° WNW 05:55:27 10° SSW
Meteor 1-27 4.2 05:47:59 10° SSW 05:53:37 66° W 05:59:13 10° N
PSLV R/B 3.6 05:50:09 10° N 05:54:28 63° WNW 05:58:42 10° SSW
Cosmos 2016 Rocket 4.1 05:48:36 10° SSW 05:54:36 56° W 06:00:35 10° N
USA 234 4.0 05:51:16 10° NE 05:57:37 50° SE 06:03:54 10° SSW
NOSS 3-1 (C) 4.3 05:52:57 10° NW 06:00:21 50° WSW 06:08:23 10° S
Cosmos 1825 3.8 05:57:27 10° N 06:01:02 39° ENE 06:04:38 10° SSE
Cosmos 1864 Rocket 4.5 05:55:45 10° SSW 06:02:00 71° W 06:08:14 10° N
Abrixas 2.3 06:00:29 10° WNW 06:03:02 46° SW 06:05:33 10° SE
Cosmos 1933 Rocket 4.3 05:59:49 10° NNW 06:03:49 33° W 06:07:48 10° SSW
Cosmos 1656 3.7 05:58:18 10° NNW 06:04:00 78° WSW 06:09:41 10° SSE
COSMOS 2487 2.6 06:02:52 10° SSW 06:06:21 56° WNW 06:09:52 10° N
Cosmos 1725 Rocket 4.0 06:01:08 10° SSW 06:07:16 64° W 06:13:24 10° N
Okean-O 4.1 06:05:12 10° NNE 06:09:23 39° E 06:13:32 10° SSE
BREEZE-M DEB (TANK) 3.8 06:06:19 10° WNW 06:10:24 83° NNE 06:23:57 10° ESE
Okean O Rocket 2.0 06:08:41 10° N 06:12:54 44° WNW 06:17:04 10° SW
Cosmos 1408 3.0 06:13:24 10° N 06:17:02 68° E 06:20:36 10° SSE
Cosmos 1151 Rocket 4.2 06:15:56 10° SW 06:19:27 24° WNW 06:22:58 10° NNW
Cosmos 1833 Rocket 2.8 06:15:42 10° SW 06:21:16 61° WNW 06:26:53 10° NNE
Cosmos 1707 Rocket 3.6 06:18:02 10° S 06:22:28 89° E 06:26:53 10° N
Meteor 2-12 Rocket 4.4 06:17:55 10° SSW 06:23:57 77° W 06:30:03 10° N
H-2A R/B 4.4 06:51:44 10° WSW 07:22:15 40° SSW 07:27:24 10° SE
